Location: *
(37.5724°S, 58.0067°E)
Time: 10:30:38
(UTC+00:00)

Cosmos 1980 - Pass Details

Date: 26 January 2021
Orbit: 840 x 846 km, 71.0° (Epoch: 07 March)

Event Time Altitude Azimuth Distance (km) Brightness Sun altitude
Rises 22:37:43 0° 207° (SSW) 3,439 7.2 -25.3°
Reaches altitude 10° 22:40:13 10° 210° (SSW) 2,496 6.4 -25.1°
Maximum altitude 22:45:51 59° 288° (WNW) 983 3.7 -24.4°
Enters shadow 22:45:58 59° 294° (WNW) 984 3.7 -24.4°
